Location: Lynch Observatory
(39.9540°N, 75.1861°W)
Time: 19:31:29
(UTC-04:00)

METEOR M2 - Visible Passes

Search period start: 18 April 2024 00:00
Search period end: 28 April 2024 00:00
Orbit: 818 x 826 km, 98.4° (Epoch: 18 April)

Date Brightness Start Highest point End Pass type
(mag) Time Alt. Az. Time Alt. Az. Time Alt. Az.
19 Apr ? 05:35:27 10° NE 05:39:34 22° E 05:43:38 10° SE visible
20 Apr ? 05:16:23 10° ENE 05:19:11 14° E 05:21:58 10° ESE visible
24 Apr ? 05:34:48 10° NE 05:38:54 22° E 05:43:00 10° SE visible
25 Apr ? 05:15:44 10° ENE 05:18:32 14° E 05:21:19 10° ESE visible
